TimeAKDT,TemperatureF,Dew PointF,Humidity,Sea Level PressureIn,VisibilityMPH,Wind Direction,Wind SpeedMPH,Gust SpeedMPH,PrecipitationIn,Events,Conditions,WindDirDegrees,DateUTC
12:00 AM,32.0,32.0,100,30.10,1.2,West,9.2,-,N/A,,Overcast,260,2013-09-15 08:00:00
12:16 AM,32.0,32.0,100,30.11,0.8,WNW,6.9,-,0.00,,Overcast,300,2013-09-15 08:16:00
12:20 AM,32.0,32.0,100,30.11,1.2,NW,8.1,-,0.00,,Overcast,320,2013-09-15 08:20:00
12:24 AM,32.0,32.0,100,30.11,3.0,NNW,9.2,-,0.00,,Overcast,340,2013-09-15 08:24:00
12:31 AM,32.0,32.0,100,30.12,1.8,North,12.7,-,0.00,,Overcast,350,2013-09-15 08:31:00
12:53 AM,32.0,32.0,100,30.14,6.0,North,12.7,-,0.00,,Overcast,360,2013-09-15 08:53:00
1:51 AM,30.2,30.2,100,30.17,2.5,North,9.2,-,0.00,Snow,Light Snow,360,2013-09-15 09:51:00
1:52 AM,30.9,30.9,100,30.17,2.5,North,10.4,-,0.00,Snow,Light Snow,360,2013-09-15 09:52:00
1:55 AM,30.2,30.2,100,30.17,3.0,North,10.4,-,0.00,Snow,Light Snow,360,2013-09-15 09:55:00
2:20 AM,30.2,30.2,100,30.18,6.0,North,8.1,-,0.00,Snow,Light Snow,360,2013-09-15 10:20:00
2:27 AM,30.2,30.2,100,30.19,8.0,North,9.2,-,0.00,,Overcast,360,2013-09-15 10:27:00
2:38 AM,30.2,30.2,100,30.19,5.0,North,9.2,-,0.00,,Overcast,10,2013-09-15 10:38:00
2:51 AM,30.2,30.2,100,30.20,10.0,North,9.2,-,0.00,,Overcast,350,2013-09-15 10:51:00
2:53 AM,30.9,28.9,92,30.20,10.0,North,8.1,-,0.00,,Overcast,350,2013-09-15 10:53:00
3:18 AM,30.2,30.2,100,30.21,4.0,North,6.9,-,0.00,Snow,Light Snow,10,2013-09-15 11:18:00
3:35 AM,30.2,30.2,100,30.21,6.0,North,6.9,-,0.00,Snow,Light Snow,350,2013-09-15 11:35:00
3:53 AM,30.0,28.9,96,30.22,8.0,North,10.4,-,0.00,,Overcast,360,2013-09-15 11:53:00
4:00 AM,30.2,28.4,93,30.22,5.0,North,9.2,-,0.00,,Overcast,10,2013-09-15 12:00:00
4:53 AM,30.0,28.9,96,30.25,4.0,North,10.4,-,0.00,Snow,Light Snow,10,2013-09-15 12:53:00
5:53 AM,30.0,27.0,88,30.27,10.0,North,9.2,-,0.00,,Overcast,10,2013-09-15 13:53:00
6:53 AM,28.9,26.1,89,30.28,10.0,North,8.1,-,0.00,,Overcast,10,2013-09-15 14:53:00
7:51 AM,28.4,26.6,93,30.29,8.0,North,8.1,-,0.00,,Overcast,10,2013-09-15 15:51:00
7:53 AM,28.9,26.1,89,30.30,10.0,North,10.4,-,0.00,,Overcast,10,2013-09-15 15:53:00
8:24 AM,28.4,24.8,86,30.30,10.0,North,6.9,-,0.00,,Overcast,10,2013-09-15 16:24:00
8:53 AM,28.9,26.1,89,30.32,10.0,NE,5.8,-,0.00,,Overcast,40,2013-09-15 16:53:00
9:53 AM,28.9,27.0,92,30.32,2.0,North,5.8,-,0.00,Snow,Light Snow,10,2013-09-15 17:53:00
10:08 AM,30.2,26.6,86,30.33,9.0,North,6.9,-,0.00,,Overcast,10,2013-09-15 18:08:00
10:53 AM,30.0,25.0,82,30.34,10.0,NNE,6.9,-,0.00,,Overcast,20,2013-09-15 18:53:00
11:53 AM,30.0,26.1,85,30.35,8.0,NNW,5.8,-,0.00,,Overcast,340,2013-09-15 19:53:00
12:53 PM,30.0,24.1,79,30.36,10.0,North,5.8,-,0.00,,Overcast,10,2013-09-15 20:53:00